Time,TemperatureF,DewpointF,PressureIn,WindDirection,WindDirectionDegrees,WindSpeedMPH,WindSpeedGustMPH,Humidity,HourlyPrecipIn,Conditions,Clouds,dailyrainin,SolarRadiationWatts/m^2,SoftwareType,DateUTC
2013-04-27 00:05:00,60.8,26.0,30.05,ENE,71,4.0,4.0,27,0.00,,,0.00,0,weatherlink.com 1.10,2013-04-27 07:05:00,
2013-04-27 00:20:00,61.0,27.0,30.05,ENE,72,4.0,4.0,27,0.00,,,0.00,0,weatherlink.com 1.10,2013-04-27 07:20:00,
2013-04-27 00:35:00,61.5,26.0,30.05,ENE,69,0.0,4.0,26,0.00,,,0.00,0,weatherlink.com 1.10,2013-04-27 07:35:00,
2013-04-27 00:50:00,59.2,27.0,30.04,ENE,69,0.0,0.0,29,0.00,,,0.00,0,weatherlink.com 1.10,2013-04-27 07:50:00,
2013-04-27 01:05:00,57.6,27.0,30.04,ENE,69,1.0,2.0,31,0.00,,,0.00,0,weatherlink.com 1.10,2013-04-27 08:05:00,
2013-04-27 01:20:00,57.1,27.0,30.04,ENE,69,0.0,2.0,31,0.00,,,0.00,0,weatherlink.com 1.10,2013-04-27 08:20:00,
2013-04-27 01:35:00,56.0,29.0,30.04,ENE,69,1.0,1.0,35,0.00,,,0.00,0,weatherlink.com 1.10,2013-04-27 08:35:00,
2013-04-27 01:50:00,56.1,26.0,30.03,ENE,69,3.0,4.0,32,0.00,,,0.00,0,weatherlink.com 1.10,2013-04-27 08:50:00,
2013-04-27 02:05:00,56.1,27.0,30.03,ENE,69,0.0,1.0,33,0.00,,,0.00,0,weatherlink.com 1.10,2013-04-27 09:05:00,
2013-04-27 02:20:00,54.1,29.0,30.03,ESE,103,1.0,3.0,39,0.00,,,0.00,0,weatherlink.com 1.10,2013-04-27 09:20:00,
2013-04-27 02:35:00,54.7,28.0,30.04,NNW,338,0.0,3.0,36,0.00,,,0.00,0,weatherlink.com 1.10,2013-04-27 09:35:00,
2013-04-27 02:50:00,54.0,27.0,30.03,North,360,1.0,1.0,36,0.00,,,0.00,0,weatherlink.com 1.10,2013-04-27 09:50:00,
2013-04-27 03:06:00,53.8,28.0,30.03,ENE,76,1.0,4.0,37,0.00,,,0.00,0,weatherlink.com 1.10,2013-04-27 10:06:00,
2013-04-27 03:21:00,53.5,27.0,30.03,ENE,76,3.0,4.0,36,0.00,,,0.00,0,weatherlink.com 1.10,2013-04-27 10:21:00,
2013-04-27 03:36:00,54.2,27.0,30.04,ENE,65,2.0,4.0,35,0.00,,,0.00,0,weatherlink.com 1.10,2013-04-27 10:36:00,
2013-04-27 03:51:00,53.8,27.0,30.04,ENE,65,0.0,3.0,35,0.00,,,0.00,0,weatherlink.com 1.10,2013-04-27 10:51:00,
2013-04-27 04:06:00,52.2,28.0,30.03,ENE,65,0.0,2.0,40,0.00,,,0.00,0,weatherlink.com 1.10,2013-04-27 11:06:00,
2013-04-27 04:21:00,52.3,30.0,30.03,ENE,57,0.0,2.0,43,0.00,,,0.00,0,weatherlink.com 1.10,2013-04-27 11:21:00,
2013-04-27 04:36:00,51.1,31.0,30.04,ENE,57,0.0,1.0,46,0.00,,,0.00,0,weatherlink.com 1.10,2013-04-27 11:36:00,
2013-04-27 04:51:00,51.0,31.0,30.03,ENE,57,0.0,1.0,46,0.00,,,0.00,0,weatherlink.com 1.10,2013-04-27 11:51:00,
2013-04-27 05:06:00,51.2,28.0,30.03,ENE,57,0.0,1.0,41,0.00,,,0.00,0,weatherlink.com 1.10,2013-04-27 12:06:00,
2013-04-27 05:21:00,50.3,27.0,30.04,ENE,57,0.0,1.0,41,0.00,,,0.00,0,weatherlink.com 1.10,2013-04-27 12:21:00,
2013-04-27 05:36:00,50.1,26.0,30.04,ENE,57,0.0,2.0,40,0.00,,,0.00,0,weatherlink.com 1.10,2013-04-27 12:36:00,
2013-04-27 05:51:00,50.0,28.0,30.04,ENE,57,0.0,1.0,43,0.00,,,0.00,12,weatherlink.com 1.10,2013-04-27 12:51:00,
2013-04-27 06:06:00,48.9,30.0,30.05,ENE,57,0.0,1.0,48,0.00,,,0.00,25,weatherlink.com 1.10,2013-04-27 13:06:00,
2013-04-27 06:21:00,51.1,30.0,30.05,ENE,57,0.0,0.0,44,0.00,,,0.00,58,weatherlink.com 1.10,2013-04-27 13:21:00,
2013-04-27 06:36:00,53.1,31.0,30.05,ENE,57,0.0,2.0,43,0.00,,,0.00,107,weatherlink.com 1.10,2013-04-27 13:36:00,
2013-04-27 06:51:00,56.9,30.0,30.05,ENE,57,2.0,3.0,36,0.00,,,0.00,162,weatherlink.com 1.10,2013-04-27 13:51:00,
2013-04-27 07:06:00,61.3,29.0,30.05,ENE,57,0.0,0.0,30,0.00,,,0.00,213,weatherlink.com 1.10,2013-04-27 14:06:00,
2013-04-27 07:21:00,64.2,33.0,30.06,ENE,57,1.0,2.0,31,0.00,,,0.00,241,weatherlink.com 1.10,2013-04-27 14:21:00,
2013-04-27 07:36:00,66.1,34.0,30.05,WNW,286,1.0,2.0,30,0.00,,,0.00,315,weatherlink.com 1.10,2013-04-27 14:36:00,
2013-04-27 07:51:00,68.2,33.0,30.05,WNW,296,3.0,3.0,27,0.00,,,0.00,369,weatherlink.com 1.10,2013-04-27 14:51:00,
2013-04-27 08:06:00,70.5,32.0,30.05,WNW,301,2.0,3.0,24,0.00,,,0.00,422,weatherlink.com 1.10,2013-04-27 15:06:00,
2013-04-27 08:21:00,73.5,31.0,30.05,WNW,300,0.0,2.0,21,0.00,,,0.00,475,weatherlink.com 1.10,2013-04-27 15:21:00,
2013-04-27 08:37:00,75.3,30.0,30.04,South,173,2.0,3.0,19,0.00,,,0.00,526,weatherlink.com 1.10,2013-04-27 15:37:00,
2013-04-27 08:52:00,78.3,30.0,30.04,SSW,205,1.0,4.0,17,0.00,,,0.00,573,weatherlink.com 1.10,2013-04-27 15:52:00,
2013-04-27 09:07:00,76.4,28.0,30.04,SE,136,2.0,4.0,17,0.00,,,0.00,622,weatherlink.com 1.10,2013-04-27 16:07:00,
2013-04-27 09:22:00,77.9,28.0,30.04,NE,42,1.0,4.0,16,0.00,,,0.00,670,weatherlink.com 1.10,2013-04-27 16:22:00,
2013-04-27 09:37:00,81.5,28.0,30.03,SSW,194,1.0,4.0,14,0.00,,,0.00,710,weatherlink.com 1.10,2013-04-27 16:37:00,
2013-04-27 09:52:00,80.7,29.0,30.03,SW,221,2.0,7.0,15,0.00,,,0.00,751,weatherlink.com 1.10,2013-04-27 16:52:00,
2013-04-27 10:07:00,83.5,29.0,30.03,West,273,5.0,6.0,14,0.00,,,0.00,789,weatherlink.com 1.10,2013-04-27 17:07:00,
2013-04-27 10:22:00,84.2,28.0,30.02,SW,219,1.0,7.0,13,0.00,,,0.00,823,weatherlink.com 1.10,2013-04-27 17:22:00,
2013-04-27 10:37:00,83.6,28.0,30.02,WNW,303,3.0,7.0,13,0.00,,,0.00,854,weatherlink.com 1.10,2013-04-27 17:37:00,
2013-04-27 10:52:00,84.9,29.0,30.01,WSW,254,2.0,8.0,13,0.00,,,0.00,879,weatherlink.com 1.10,2013-04-27 17:52:00,
2013-04-27 11:07:00,85.1,29.0,30.01,SSW,212,4.0,8.0,13,0.00,,,0.00,904,weatherlink.com 1.10,2013-04-27 18:07:00,
2013-04-27 11:22:00,86.4,28.0,30.00,West,264,5.0,9.0,12,0.00,,,0.00,925,weatherlink.com 1.10,2013-04-27 18:22:00,
2013-04-27 11:37:00,87.3,27.0,29.99,SSW,213,7.0,11.0,11,0.00,,,0.00,935,weatherlink.com 1.10,2013-04-27 18:37:00,
2013-04-27 11:52:00,87.6,27.0,29.98,SW,236,6.0,10.0,11,0.00,,,0.00,947,weatherlink.com 1.10,2013-04-27 18:52:00,
2013-04-27 12:07:00,87.9,27.0,29.98,SW,219,10.0,14.0,11,0.00,,,0.00,962,weatherlink.com 1.10,2013-04-27 19:07:00,
2013-04-27 12:22:00,88.2,25.0,29.97,WSW,251,5.0,12.0,10,0.00,,,0.00,962,weatherlink.com 1.10,2013-04-27 19:22:00,
2013-04-27 12:38:00,88.7,20.0,29.96,WSW,258,5.0,11.0,8,0.00,,,0.00,963,weatherlink.com 1.10,2013-04-27 19:38:00,
2013-04-27 12:53:00,89.0,14.0,29.96,NW,317,4.0,10.0,6,0.00,,,0.00,954,weatherlink.com 1.10,2013-04-27 19:53:00,
2013-04-27 13:08:00,89.3,14.0,29.95,WSW,238,7.0,12.0,6,0.00,,,0.00,946,weatherlink.com 1.10,2013-04-27 20:08:00,
2013-04-27 13:23:00,89.4,10.0,29.95,WSW,242,2.0,9.0,5,0.00,,,0.00,932,weatherlink.com 1.10,2013-04-27 20:23:00,
2013-04-27 13:38:00,89.2,17.0,29.94,NW,322,6.0,13.0,7,0.00,,,0.00,912,weatherlink.com 1.10,2013-04-27 20:38:00,
2013-04-27 13:53:00,90.5,18.0,29.93,WNW,283,10.0,11.0,7,0.00,,,0.00,889,weatherlink.com 1.10,2013-04-27 20:53:00,
2013-04-27 14:08:00,89.1,14.0,29.93,SSE,163,0.0,8.0,6,0.00,,,0.00,863,weatherlink.com 1.10,2013-04-27 21:08:00,
2013-04-27 14:23:00,90.3,15.0,29.91,WNW,290,3.0,12.0,6,0.00,,,0.00,831,weatherlink.com 1.10,2013-04-27 21:23:00,
2013-04-27 14:38:00,88.4,13.0,29.91,West,260,4.0,9.0,6,0.00,,,0.00,800,weatherlink.com 1.10,2013-04-27 21:38:00,
2013-04-27 14:53:00,88.4,13.0,29.90,NW,313,1.0,7.0,6,0.00,,,0.00,763,weatherlink.com 1.10,2013-04-27 21:53:00,
2013-04-27 15:08:00,89.7,21.0,29.89,West,267,9.0,16.0,8,0.00,,,0.00,717,weatherlink.com 1.10,2013-04-27 22:08:00,
2013-04-27 15:23:00,88.8,23.0,29.88,SW,217,5.0,10.0,9,0.00,,,0.00,671,weatherlink.com 1.10,2013-04-27 22:23:00,
2013-04-27 15:38:00,88.7,23.0,29.88,NW,317,3.0,9.0,9,0.00,,,0.00,628,weatherlink.com 1.10,2013-04-27 22:38:00,
2013-04-27 15:53:00,88.8,23.0,29.88,SW,234,5.0,16.0,9,0.00,,,0.00,580,weatherlink.com 1.10,2013-04-27 22:53:00,
2013-04-27 16:08:00,88.2,22.0,29.87,SSW,211,8.0,13.0,9,0.00,,,0.00,534,weatherlink.com 1.10,2013-04-27 23:08:00,
2013-04-27 16:23:00,88.7,23.0,29.87,SW,234,4.0,12.0,9,0.00,,,0.00,480,weatherlink.com 1.10,2013-04-27 23:23:00,
2013-04-27 16:38:00,88.0,22.0,29.87,WNW,302,7.0,14.0,9,0.00,,,0.00,429,weatherlink.com 1.10,2013-04-27 23:38:00,
2013-04-27 16:53:00,88.1,22.0,29.87,West,281,5.0,12.0,9,0.00,,,0.00,380,weatherlink.com 1.10,2013-04-27 23:53:00,
2013-04-27 17:08:00,87.9,22.0,29.86,SW,224,5.0,14.0,9,0.00,,,0.00,325,weatherlink.com 1.10,2013-04-28 00:08:00,
2013-04-27 17:23:00,87.8,25.0,29.86,WSW,258,9.0,12.0,10,0.00,,,0.00,274,weatherlink.com 1.10,2013-04-28 00:23:00,
2013-04-27 17:38:00,87.1,24.0,29.86,West,272,4.0,14.0,10,0.00,,,0.00,220,weatherlink.com 1.10,2013-04-28 00:38:00,
2013-04-27 17:53:00,86.5,24.0,29.86,SW,233,6.0,11.0,10,0.00,,,0.00,163,weatherlink.com 1.10,2013-04-28 00:53:00,
2013-04-27 18:08:00,85.9,23.0,29.86,WSW,248,7.0,14.0,10,0.00,,,0.00,107,weatherlink.com 1.10,2013-04-28 01:08:00,
2013-04-27 18:23:00,85.0,23.0,29.86,WSW,248,9.0,12.0,10,0.00,,,0.00,60,weatherlink.com 1.10,2013-04-28 01:23:00,
2013-04-27 18:38:00,84.4,22.0,29.85,West,262,7.0,14.0,10,0.00,,,0.00,26,weatherlink.com 1.10,2013-04-28 01:38:00,
2013-04-27 18:53:00,83.3,21.0,29.85,WNW,298,8.0,10.0,10,0.00,,,0.00,11,weatherlink.com 1.10,2013-04-28 01:53:00,
2013-04-27 19:08:00,82.2,23.0,29.85,WNW,287,3.0,9.0,11,0.00,,,0.00,0,weatherlink.com 1.10,2013-04-28 02:08:00,
2013-04-27 19:23:00,81.8,20.0,29.85,WNW,284,8.0,12.0,10,0.00,,,0.00,0,weatherlink.com 1.10,2013-04-28 02:23:00,
2013-04-27 19:38:00,80.9,22.0,29.86,WNW,284,5.0,9.0,11,0.00,,,0.00,0,weatherlink.com 1.10,2013-04-28 02:38:00,
2013-04-27 19:53:00,79.6,23.0,29.86,West,280,4.0,6.0,12,0.00,,,0.00,0,weatherlink.com 1.10,2013-04-28 02:53:00,
2013-04-27 20:08:00,78.3,22.0,29.87,West,263,5.0,6.0,12,0.00,,,0.00,0,weatherlink.com 1.10,2013-04-28 03:08:00,
2013-04-27 20:23:00,77.1,23.0,29.87,WSW,242,3.0,6.0,13,0.00,,,0.00,0,weatherlink.com 1.10,2013-04-28 03:23:00,
2013-04-27 20:38:00,76.1,23.0,29.87,WSW,257,3.0,4.0,14,0.00,,,0.00,0,weatherlink.com 1.10,2013-04-28 03:38:00,
2013-04-27 20:53:00,75.4,25.0,29.88,West,279,2.0,5.0,15,0.00,,,0.00,0,weatherlink.com 1.10,2013-04-28 03:53:00,
2013-04-27 21:08:00,74.4,25.0,29.88,WNW,282,0.0,2.0,16,0.00,,,0.00,0,weatherlink.com 1.10,2013-04-28 04:08:00,
2013-04-27 21:23:00,72.7,24.0,29.89,WNW,282,0.0,0.0,16,0.00,,,0.00,0,weatherlink.com 1.10,2013-04-28 04:23:00,
2013-04-27 21:38:00,71.1,24.0,29.89,NE,47,0.0,5.0,17,0.00,,,0.00,0,weatherlink.com 1.10,2013-04-28 04:38:00,
2013-04-27 21:53:00,68.8,23.0,29.89,ENE,67,3.0,4.0,18,0.00,,,0.00,0,weatherlink.com 1.10,2013-04-28 04:53:00,
2013-04-27 22:08:00,69.7,24.0,29.89,East,90,3.0,5.0,18,0.00,,,0.00,0,weatherlink.com 1.10,2013-04-28 05:08:00,
2013-04-27 22:24:00,68.5,26.0,29.89,SE,136,2.0,3.0,20,0.00,,,0.00,0,weatherlink.com 1.10,2013-04-28 05:24:00,
2013-04-27 22:38:00,68.4,24.0,29.89,East,81,5.0,5.0,19,0.00,,,0.00,0,weatherlink.com 1.10,2013-04-28 05:38:00,
2013-04-27 22:53:00,67.9,24.0,29.89,East,86,0.0,3.0,19,0.00,,,0.00,0,weatherlink.com 1.10,2013-04-28 05:53:00,
2013-04-27 23:08:00,66.6,25.0,29.89,East,86,0.0,2.0,21,0.00,,,0.00,0,weatherlink.com 1.10,2013-04-28 06:08:00,
2013-04-27 23:23:00,65.8,24.0,29.89,NNE,13,1.0,4.0,20,0.00,,,0.00,0,weatherlink.com 1.10,2013-04-28 06:23:00,
2013-04-27 23:38:00,64.6,25.0,29.89,East,85,5.0,5.0,22,0.00,,,0.00,0,weatherlink.com 1.10,2013-04-28 06:38:00,
2013-04-27 23:53:00,65.6,23.0,29.89,ENE,59,3.0,5.0,20,0.00,,,0.00,0,weatherlink.com 1.10,2013-04-28 06:53:00,